Regional Weather Roundup
Issued by NWS

Home | Current Version | Previous Version | Text Only | Print | Product List | Glossary On
Versions: 1 2 3 4 5 6 7 8 9 10 11 12 13 14 15 16 17 18 19 20 21 22 23 24 25 26 27 28 29 30 31 32 33 34 35 36 37 38 39 40 41 42 43 44 45 46 47 48 49 50
000
ASUS43 KMKX 251420
RWRWI

WISCONSIN REGIONAL WEATHER ROUNDUP
NATIONAL WEATHER SERVICE MILWAUKEE/SULLIVAN WI
800 AM CST SUN JAN 25 2015

NOTE: "FAIR" INDICATES FEW OR NO CLOUDS BELOW 12,000 FEET WITH NO
SIGNIFICANT WEATHER AND/OR OBSTRUCTIONS TO VISIBILITY.

WIZ001-002-006>008-014>016-023>028-251500-
NORTHWEST WISCONSIN

CITY           SKY/WX    TMP DP  RH WIND       PRES   REMARKS
SUPERIOR ARPT  FLURRIES  20  17  85 NE12      30.01R WCI   8
ASHLAND        CLOUDY    18  11  74 E7        30.01R WCI   9
HAYWARD        CLOUDY    17   9  70 CALM      29.96R
SIREN          CLOUDY    19  11  70 E6        29.98R WCI  11
CUMBERLAND     PTCLDY    14   9  79 NE8       29.95R WCI   3
RICE LAKE      PTCLDY    14   8  78 NE7       29.97R WCI   4
CHETEK         PTCLDY    15   8  75 NE6       29.96R WCI   6
LADYSMITH      CLOUDY    15  10  78 NE10G16   29.96R WCI   3
EAU CLAIRE     CLOUDY    19  10  68 NE14      29.93R WCI   6
MENOMONIE      CLOUDY    20  11  68 NE12      29.95R WCI   8
NEW RICHMOND   PTCLDY    17   9  73 NE12G20   29.96R WCI   4
OSCEOLA        MOCLDY    18  10  71 NE10      30.00R WCI   6
$$

WIZ003>005-009-010-017-018-251500-
NORTH CENTRAL WISCONSIN

CITY           SKY/WX    TMP DP  RH WIND       PRES   REMARKS
MANITOWISH WTR FLURRIES  12   6  79 NE7       29.93R WCI   1
ARBOR VITAE    LGT SNOW  14   8  78 NE6       29.92R WCI   5
WOODRUFF       LGT SNOW  14   8  78 NE6       29.92R WCI   5
RHINELANDER    CLOUDY    13   6  74 E10       29.91R WCI   0
EAGLE RIVER    CLOUDY    12   5  73 NE7       29.92R WCI   2
LAND O LAKES   CLOUDY    12   6  76 NE7       29.94R WCI   1
PHILLIPS       CLOUDY    13   8  78 NE9G17    29.92R WCI   1
TOMAHAWK       CLOUDY    14   8  76 NE3       29.92R
MEDFORD        CLOUDY    14   8  76 E12       29.90R WCI   1
MERRILL        CLOUDY    16   9  75 E10       29.92R WCI   3
$$

WIZ029-030-035-036-043>047-251500-
CENTRAL WISCONSIN

CITY           SKY/WX    TMP DP  RH WIND       PRES   REMARKS
WAUSAU         CLOUDY    16   9  74 NE8       29.91R WCI   5
MOSINEE        FLURRIES  18  12  79 NE14      29.92R WCI   4
MARSHFIELD     CLOUDY    19  10  68 NE9       29.90R WCI   8
STEVENS POINT  CLOUDY    17  10  74 E12       29.92R WCI   4
WAUPACA        FLURRIES  22  13  69 NE12G17   29.94R WCI  11
WAUTOMA        CLOUDY    21  13  71 NE15G24   29.92R WCI   8
WISC RAPIDS    CLOUDY    20  10  65 E8        29.92R WCI  10
CAMP DOUGLAS   CLOUDY    21  18  86 NE8       29.90R WCI  12
$$

WIZ011>013-019>022-031-037>040-048>050-251500-
NORTHEAST WISCONSIN

CITY           SKY/WX    TMP DP  RH WIND       PRES   REMARKS
ANTIGO         CLOUDY    13   8  78 E12       29.91R WCI   0
SHAWANO        FLURRIES  20  12  71 NE16      29.96R WCI   6
OCONTO         FAIR      15   9  78 MISG      29.99R
STURGEON BAY   CLOUDY    16   7  67 N12       29.99R WCI   3
GREEN BAY      CLOUDY    18   9  68 NE22      29.96R WCI   1
MANITOWOC      FLURRIES  22  16  78 NE13G25   29.93R WCI  10
APPLETON       CLOUDY    18   9  68 NE16G25   29.92R WCI   3
CLINTONVILLE   CLOUDY    19  10  68 NE14G20   29.95R WCI   6
OSHKOSH        CLOUDY    20  12  71 NE20      29.91R WCI   4
$$

WIZ032>034-041-042-053>061-251500-
SOUTHWEST WISCONSIN

CITY           SKY/WX    TMP DP  RH WIND       PRES   REMARKS
LA CROSSE      CLOUDY    28  20  71 NE10      29.89R WCI  19
SPARTA         CLOUDY    23  15  74 E13       29.91R WCI  11
VIROQUA        CLOUDY    23  18  81 NE16      29.83R WCI  10
BOSCOBEL       FLURRIES  26  19  74 NE6G20    29.85R WCI  19
PRAIRIE DU CHI LGT SNOW  27  22  79 NE14      29.84R WCI  16
PLATTEVILLE    CLOUDY    26  22  87 NE21G26   29.78R WCI  11
$$

WIZ056-057-062-063-064-067-068-251500-
SOUTH CENTRAL WISCONSIN

CITY           SKY/WX    TMP DP  RH WIND       PRES   REMARKS
REEDSBURG      MIX PCPN  22  17  82 NE12G17   29.87R WCI  10
BARABOO/DELLS  CLOUDY    21  16  79 NE9       29.87R WCI  11
LONE ROCK      CLOUDY    24  17  74 NE12      29.86R WCI  13
MINERAL POINT  LGT SNOW  27  23  86 NE16G23   29.79R WCI  14
MADISON        FLURRIES  23  19  85 NE14      29.84R WCI  11
MIDDLETON      CLOUDY    25  20  81 NE12G18   29.84R WCI  14
WATERTOWN      FLURRIES  26  21  82 NE16G24   29.84R WCI  13
MONROE         LGT SNOW  27  25  93 NE21      29.76R WCI  13
JANESVILLE     FLURRIES  28  25  86 NE15G22   29.78R WCI  17
$$

WIZ051-052-058>065-066-070>072-251500-
SOUTHEAST WISCONSIN

CITY           SKY/WX    TMP DP  RH WIND       PRES   REMARKS
MILWAUKEE      FLURRIES  26  17  68 NE22G29   29.84R WCI  12
WAUKESHA       LGT SNOW  25  21  86 NE17G35   29.83R WCI  11
MILWAUKEE/TIMM LGT SNOW  27  19  74 NE15G28   29.86R WCI  15
RACINE         CLOUDY    27  19  72 NE17G28   29.84R WCI  14
BURLINGTON     FLURRIES  25  22  86 NE22G28   29.81R WCI  11
KENOSHA        LGT SNOW  27  22  81 NE18G25   29.81R WCI  14
FOND DU LAC    CLOUDY    23  16  74 NE14      29.90R WCI  11
SHEBOYGAN      CLOUDY    24  16  71 NE22G32   29.89R WCI   9
WEST BEND      CLOUDY    25  19  80 NE22      29.86R WCI  10
JUNEAU         CLOUDY    23  18  81 NE14G20   29.86R WCI  11
$$

LSZ147-162-251500-
LAKE SUPERIOR

STATION/POSITION TIME  TEMP    WIND        PRES    WAVE
                       AIR SEA DIR/SP/G            HT/PER
                 (UTC) (F)     (DEG/KT/KT) (MB)    (FT/S)
DEVILS ISLAND    1400   18      50/ 21/ 22 1018.6R
PORT WING        1300   22      80/  7/ 10 1016.3R
SAXON HARBOR     1300   18     100/  2/  7 1015.9
$$

LMZ867-665-643>646-251500-
LAKE MICHIGAN

STATION/POSITION TIME  TEMP    WIND        PRES    WAVE
                       AIR SEA DIR/SP/G            HT/PER
                 (UTC) (F)     (DEG/KT/KT) (MB)    (FT/S)
NORTHPORT PIER   1406   15      10/ 17/ 21 1016.3R
SISTER BAY       1313   14     360/ 11/ 17   N/A
KEWAUNEE LAKESHO 1300   22      50/ 23/ 27 1012.4R
SHEBOYGAN LAKESH 1400   24      40/ 28/ 31 1013.6R
PORT WASHINGTON  1300   28      40/ 23/ 30 1011.9R
MILWAUKEE LAKESH 1400   27      40/ 24/ 29   N/A
KENOSHA   LAKESH 1400   28      30/ 25/ 29 1009.5R
$$

TC  - TEMPERATURE IN CELSIUS
VSB - VISIBILITY IN STATUTE MILES
WCI - WIND CHILL INDEX
HX  - HEAT INDEX



USA.gov is the U.S. government's official web portal to all federal, state and local government web resources and services.